Change the Weather History Date:

Monday, December 3, 2012

  Actual Average (KPRN) Record (KPRN)
Temperature  
Mean Temperature 62 °F -  
Max Temperature 77 °F 63 °F 81 °F (1955)
Min Temperature 46 °F 40 °F 19 °F (1929)
Degree Days  
Heating Degree Days 4    
Growing Degree Days 12 (Base 50)    
Moisture  
Dew Point 51 °F    
Average Humidity 81    
Maximum Humidity 97    
Minimum Humidity 43    
Precipitation  
Precipitation 0.02 in - - ()
Sea Level Pressure  
Sea Level Pressure 30.26 in    
Wind  
Wind Speed 2 mph (South)    
Max Wind Speed 14 mph    
Max Gust Speed 18 mph    
Visibility 6 miles    
Events Fog    
Averages and records for this station are not official NWS values.
T = Trace of Precipitation, MM = Missing Value Source: NWS Daily Summary

Daily Weather History Graph

Daily Weather History Graph

Search for Another Location

Airport or City:

Trip Planner

Search our weather history database for the weather conditions in past years. The results will help you decide how hot, cold, wet, or windy it might be!

Date:

Astronomy

Dec. 03, 2012 Rise Set
Actual Time 6:31 AM CST 4:44 PM CST
Civil Twilight 6:05 AM CST 5:11 PM CST
Nautical Twilight 5:34 AM CST 5:41 PM CST
Astronomical Twilight 5:05 AM CST 6:10 PM CST
Moon 9:21 PM CST (12/3) 10:03 AM CST (12/3)
Length of Visible Light 11h 06m
Length of Day
10h 13m
Waning Gibbous, 78% of the Moon is Illuminated
Dec 3
Waning Gibbous
Dec 6
Last Quarter
Dec 13
New
Dec 19
First Quarter
Dec 28
Full

Hourly Weather History & Observations

Time (CST) Temp. Dew Point Humidity Pressure Visibility Wind Dir Wind Speed Gust Speed Precip Events Conditions
12:42 AM 46.4 °F 44.6 °F 93% 30.26 in 9.0 mi Calm Calm - 0.01 in   Scattered Clouds
12:51 AM 46.4 °F 44.6 °F 93% 30.26 in 9.0 mi Calm Calm - 0.01 in   Mostly Cloudy
12:53 AM 46.0 °F 44.1 °F 93% 30.26 in 9.0 mi Calm Calm - 0.01 in   Mostly Cloudy
1:36 AM 48.2 °F 46.4 °F 93% 30.27 in 1.8 mi Calm Calm - N/A   Overcast
1:46 AM 48.2 °F 46.4 °F 93% 30.27 in 0.2 mi Calm Calm - N/A Fog Fog
1:53 AM 48.0 °F 46.9 °F 96% 30.27 in 0.2 mi Calm Calm - N/A Fog Fog
2:53 AM 48.9 °F 48.0 °F 97% 30.26 in 0.2 mi Calm Calm - N/A Fog Fog
3:53 AM 51.1 °F 48.9 °F 92% 30.26 in 0.2 mi Calm Calm - N/A Fog Fog
4:53 AM 50.0 °F 48.9 °F 96% 30.27 in 0.5 mi Calm Calm - N/A Fog Fog
5:53 AM 52.0 °F 50.0 °F 93% 30.27 in 0.2 mi Calm Calm - N/A Fog Fog
6:53 AM 53.1 °F 51.1 °F 93% 30.29 in 0.2 mi Calm Calm - 0.01 in Fog Fog
7:53 AM 55.0 °F 54.0 °F 96% 30.30 in 0.2 mi Calm Calm - N/A Fog Fog
9:15 AM 60.8 °F 59.0 °F 94% 30.31 in 2.0 mi Calm Calm - N/A   Overcast
9:23 AM 60.8 °F 59.0 °F 94% 30.31 in 7.0 mi SSE 3.5 mph - N/A   Mostly Cloudy
9:35 AM 62.6 °F 60.8 °F 94% 30.31 in 10.0 mi Calm Calm - N/A   Mostly Cloudy
9:53 AM 66.9 °F 61.0 °F 81% 30.30 in 10.0 mi Calm Calm - N/A   Scattered Clouds
10:53 AM 73.9 °F 57.0 °F 55% 30.29 in 10.0 mi SE 13.8 mph - N/A   Clear
11:53 AM 75.9 °F 55.0 °F 48% 30.25 in 10.0 mi South 13.8 mph - N/A   Partly Cloudy
12:53 PM 75.9 °F 55.0 °F 48% 30.22 in 10.0 mi SSE 9.2 mph 18.4 mph N/A   Mostly Cloudy
1:53 PM 75.9 °F 53.1 °F 45% 30.20 in 10.0 mi SSW 10.4 mph - N/A   Mostly Cloudy
2:53 PM 77.0 °F 54.0 °F 45% 30.20 in 10.0 mi South 11.5 mph - N/A   Mostly Cloudy
3:53 PM 75.9 °F 52.0 °F 43% 30.21 in 10.0 mi SSW 5.8 mph - N/A   Overcast
4:53 PM 69.1 °F 52.0 °F 54% 30.22 in 10.0 mi South 3.5 mph - N/A   Clear
5:53 PM 62.1 °F 53.1 °F 72% 30.23 in 6.0 mi Calm Calm - N/A   Haze
6:53 PM 57.9 °F 52.0 °F 81% 30.24 in 10.0 mi Calm Calm - N/A   Clear
7:53 PM 55.0 °F 51.1 °F 86% 30.24 in 10.0 mi Calm Calm - N/A   Clear
8:53 PM 55.0 °F 50.0 °F 83% 30.25 in 10.0 mi Calm Calm - N/A   Clear
9:53 PM 52.0 °F 48.9 °F 89% 30.25 in 10.0 mi Calm Calm - N/A   Clear
10:53 PM 51.1 °F 48.0 °F 89% 30.24 in 10.0 mi Calm Calm - N/A   Clear
11:53 PM 48.9 °F 46.0 °F 90% 30.23 in 10.0 mi Calm Calm - N/A   Clear